Theta_e
331 328 328 327 325 325 326 326 326 325 325 326 325 326 327 326 323 317 316 316 314 315 320 321 319 319 322 325 325 323 323 322 322 322 323 325 326 328 329 327 326 328 328 328 327 326 327 327 326 327 327 326 326 326 325 325 324 321 320 319 317 315 315 315 316 316 316 316 315 313 312 312 313 312 312 313 311 310 311 312 312 310 309 309 309
330 326 325 325 326 326 326 326 327 326 326 326 326 327 326 324 321 319 322 324 321 322 325 325 324 324 325 325 325 325 324 324 323 322 324 326 326 326 327 327 327 327 326 326 327 327 327 326 326 326 326 326 326 324 323 323 322 320 318 318 316 315 315 316 316 317 317 317 317 315 313 313 313 313 313 313 313 311 311 312 312 312 311 311 311
329 325 323 324 325 327 327 326 326 327 326 325 326 327 327 326 326 325 325 325 324 324 326 325 324 324 324 324 324 324 323 324 325 324 323 325 327 327 327 326 326 325 326 325 325 327 328 327 326 326 326 326 325 323 322 322 320 318 318 317 315 314 316 316 316 317 317 317 317 316 315 314 314 314 314 313 314 313 312 312 313 314 314 313 313
329 327 326 326 326 327 326 324 326 327 326 325 326 327 328 327 327 327 325 323 324 325 325 324 324 324 324 323 323 324 324 324 325 325 324 326 327 327 326 326 325 324 325 324 323 326 327 326 326 326 325 326 325 323 321 321 319 317 317 317 315 314 315 316 316 317 317 317 317 316 316 316 315 315 315 314 314 315 314 313 313 314 314 314 314
327 324 326 327 326 324 323 322 327 328 325 326 327 327 328 327 325 325 324 323 324 325 323 323 323 323 323 323 323 323 324 324 324 325 325 325 326 326 325 325 324 323 323 322 322 324 325 326 327 327 326 327 326 323 321 320 319 317 317 317 316 315 315 316 316 316 317 316 316 315 316 316 316 315 315 314 314 315 315 315 314 314 314 314 313
326 323 324 324 322 322 323 325 328 329 326 327 328 327 327 327 325 325 325 325 325 324 323 323 323 323 323 322 322 322 322 322 323 324 323 324 324 324 323 323 323 323 322 321 321 322 323 324 325 327 327 327 326 322 321 320 319 317 317 317 317 316 316 316 316 316 316 316 316 315 315 316 316 316 316 315 315 315 315 315 315 314 314 314 314
326 323 321 321 322 325 326 326 327 328 327 327 327 327 326 325 325 325 325 325 325 324 323 322 322 323 323 322 321 320 321 321 321 322 323 323 323 323 322 322 322 322 321 320 320 321 321 322 322 324 325 326 325 323 321 320 319 318 318 317 317 317 317 317 317 317 317 317 317 316 316 316 316 316 316 315 315 315 315 315 315 314 314 314 314
327 324 322 323 327 329 328 328 327 327 325 324 324 324 323 324 326 326 325 325 324 323 323 322 322 323 323 322 320 320 320 320 320 321 321 321 322 322 322 322 321 321 321 320 320 320 320 321 321 321 322 323 323 323 322 321 320 319 318 318 317 317 318 318 318 317 317 317 317 317 317 317 316 316 316 315 315 315 315 314 314 314 314 314 314
329 328 327 326 328 329 328 328 327 326 324 323 323 322 322 325 326 326 325 324 323 322 322 322 322 322 322 321 320 319 319 319 319 320 320 319 320 321 322 322 321 321 321 320 320 320 320 321 321 320 321 321 321 322 322 322 322 321 320 320 319 319 319 319 318 318 318 318 318 318 318 318 317 316 316 315 315 315 315 315 314 314 315 315 315
329 329 328 327 326 327 326 326 326 326 325 324 324 325 325 325 326 326 325 323 322 322 321 320 320 320 319 320 320 319 319 318 318 319 319 319 318 319 320 321 321 320 321 320 321 321 320 321 320 320 320 319 318 319 319 320 321 322 321 321 321 320 320 319 319 318 318 318 318 318 318 318 317 317 316 316 316 316 316 316 315 315 315 315 315
328 327 327 326 326 326 326 325 325 325 324 322 323 324 324 325 325 325 324 322 321 320 319 318 318 317 318 320 319 318 318 318 317 317 318 318 318 318 319 319 319 319 319 320 321 321 320 320 320 319 319 318 317 316 315 316 317 319 320 321 321 320 320 319 319 319 318 318 318 318 318 318 317 317 316 317 317 316 316 316 316 316 316 316 316
326 326 326 326 325 325 325 324 324 325 323 321 320 321 323 324 323 323 322 322 321 319 318 318 318 318 319 319 316 313 312 313 314 314 315 316 317 318 318 319 319 318 318 318 319 320 319 319 319 319 317 316 315 315 314 314 314 316 318 319 319 319 319 319 319 320 319 319 318 318 318 317 317 317 317 317 317 317 317 317 317 317 317 316 316
324 324 324 324 323 324 324 323 323 324 322 319 319 320 321 323 322 321 321 320 320 320 320 319 320 320 318 315 311 309 308 309 309 310 312 313 314 315 317 318 318 318 317 317 318 318 318 318 319 319 318 315 314 315 316 315 314 314 315 316 317 316 315 316 318 320 320 320 319 319 318 318 317 317 317 317 317 317 318 318 317 317 318 318 317
323 324 324 323 323 323 323 323 323 322 320 319 320 321 321 322 321 320 317 315 316 319 320 320 320 318 315 312 311 311 311 310 309 309 310 311 311 312 316 318 317 317 318 318 318 319 319 319 319 319 319 318 315 316 317 318 318 316 314 314 313 313 312 312 314 316 316 317 318 319 319 319 319 319 319 319 318 318 319 320 319 318 319 319 318
323 323 323 322 323 323 323 322 322 320 319 319 320 320 321 321 321 318 314 310 311 314 315 316 316 315 313 312 312 313 312 312 312 311 311 312 310 310 315 318 317 317 319 318 318 319 320 320 320 319 320 320 318 317 317 319 320 320 319 318 316 315 315 313 312 312 312 312 313 315 315 316 318 319 319 320 320 320 320 320 320 319 320 320 319
321 321 321 321 321 321 320 320 320 319 319 320 321 321 321 321 320 317 314 312 312 312 312 313 313 313 313 313 313 313 313 313 313 313 313 313 312 313 315 317 318 319 319 318 317 318 318 318 319 319 319 320 319 318 317 316 317 317 318 319 319 319 318 317 316 315 313 312 311 312 312 313 314 315 317 318 321 321 320 319 320 320 319 320 319
318 318 319 319 319 319 319 319 319 319 320 320 319 319 319 318 318 318 316 315 315 315 314 313 312 313 313 314 314 314 313 313 313 313 313 313 313 315 317 318 319 320 320 318 318 319 318 316 316 318 319 318 317 317 316 315 314 314 314 317 319 320 319 319 319 318 317 316 314 313 313 313 313 314 314 316 318 319 319 319 319 319 319 319 318
316 317 317 317 318 318 319 319 319 318 318 318 317 317 317 316 317 317 317 317 317 316 315 314 313 313 313 315 315 314 313 314 314 313 314 314 314 315 317 318 319 320 319 318 318 319 318 316 316 317 317 316 316 316 315 315 314 314 314 315 316 318 319 319 319 318 319 318 316 315 314 314 314 314 314 315 315 315 316 316 316 318 319 318 316
315 315 315 316 316 317 317 317 317 317 317 317 317 316 316 316 316 317 317 317 316 316 315 315 314 314 315 316 316 316 316 316 316 316 316 316 315 316 316 316 317 318 318 317 318 318 318 317 317 318 318 317 317 317 317 317 317 317 316 316 316 317 318 319 317 317 318 317 317 316 316 315 315 315 315 315 315 315 315 315 315 316 318 317 316
313 314 314 314 314 315 315 315 316 316 315 316 316 316 316 316 316 316 316 316 316 316 316 316 316 316 317 318 318 318 318 318 318 318 318 317 318 317 317 316 316 316 317 317 316 316 316 316 316 316 317 317 317 317 317 317 317 317 317 317 317 317 318 318 317 317 317 316 316 316 316 315 315 315 316 317 316 316 316 316 315 315 316 317 317
308 309 310 311 312 313 313 313 314 314 314 314 313 314 314 314 315 315 315 314 314 314 313 314 314 315 315 316 315 316 317 317 316 316 316 317 317 317 317 317 316 315 315 315 314 313 313 314 314 314 314 314 313 312 312 311 311 312 312 313 314 314 314 314 315 315 315 315 315 315 315 315 315 315 316 316 316 315 315 315 316 317 316 316 317
302 303 304 305 307 308 310 310 311 312 312 312 311 311 311 312 312 312 312 312 311 310 310 310 311 311 312 312 312 313 314 314 313 313 313 313 313 313 314 314 313 312 312 311 310 309 310 310 310 310 310 308 307 306 305 306 306 306 307 307 308 308 309 310 310 311 311 312 313 314 314 315 314 313 313 313 314 315 315 313 313 315 316 316 316
299 299 300 300 301 302 303 305 306 306 305 305 305 306 307 308 310 310 311 310 309 308 309 310 310 311 311 311 311 311 312 312 312 312 311 311 311 311 311 311 310 309 309 308 307 307 307 307 308 308 308 307 306 304 303 303 303 303 303 303 303 303 303 304 304 304 305 305 306 307 308 310 311 312 312 314 315 315 315 314 313 312 314 315 316
298 298 298 298 298 298 299 299 300 300 300 299 300 301 300 301 302 303 305 306 306 305 305 306 307 307 306 305 305 305 305 305 305 305 305 305 305 306 306 306 305 303 303 303 303 303 303 303 304 305 305 305 305 303 301 301 300 300 300 300 300 301 301 301 301 301 301 301 300 301 301 302 304 306 308 311 313 314 314 314 314 314 314 314 315
299 299 298 297 297 297 297 298 298 297 298 298 298 299 300 300 300 300 302 304 305 305 304 304 305 305 305 304 303 302 301 301 300 300 300 300 300 300 300 300 300 300 299 299 299 299 300 300 299 299 299 299 300 299 299 299 299 299 299 298 298 299 299 299 300 299 299 299 299 300 302 303 304 305 305 307 310 312 313 313 313 313 313 313 313
300 300 299 298 298 297 298 299 299 298 299 300 300 300 302 303 303 303 304 305 305 304 304 304 304 304 305 305 304 302 302 303 302 300 299 299 299 298 298 298 298 298 298 298 299 298 298 298 298 298 298 297 297 297 297 297 298 297 297 298 299 299 300 300 300 301 302 304 304 305 307 308 309 309 309 309 310 310 311 311 311 311 311 311 312
301 301 301 301 300 299 299 300 302 300 300 301 301 301 302 303 303 303 304 304 305 304 304 304 304 304 304 304 304 303 304 304 303 301 299 298 297 297 297 298 297 297 297 298 298 297 297 298 297 297 297 298 298 299 299 299 300 301 301 302 303 303 303 304 304 305 306 306 307 307 308 308 309 309 309 310 310 310 310 310 310 310 310 310 310
301 302 301 301 302 301 300 301 302 302 301 300 298 299 301 302 301 300 299 301 303 304 304 304 303 303 304 304 304 304 304 304 303 301 298 297 296 297 297 297 297 297 297 297 297 298 298 298 298 299 300 301 302 302 303 303 304 304 305 305 305 304 304 305 305 305 305 305 305 305 305 306 307 308 308 309 309 308 308 308 308 308 309 309 308
300 300 299 299 300 301 301 301 301 302 302 301 298 296 297 298 299 298 297 297 298 299 300 301 300 300 302 303 302 303 303 302 300 299 297 296 297 297 297 297 298 298 298 298 298 298 298 299 300 302 303 303 303 303 304 304 304 304 304 304 304 304 304 304 304 304 304 304 304 304 304 305 305 306 306 307 307 307 307 307 306 306 307 308 307
300 299 298 296 296 299 300 300 300 301 301 302 300 299 297 297 296 296 296 296 296 296 297 297 297 297 298 299 299 299 299 299 297 297 297 297 298 298 298 298 298 298 298 298 298 299 299 301 302 303 303 303 303 303 302 302 302 302 302 302 302 302 303 303 303 303 303 303 303 302 303 303 303 303 304 304 305 306 306 306 305 304 305 305 305
300 300 299 297 296 298 299 299 300 300 300 301 301 301 301 299 297 296 296 296 296 296 297 297 297 297 297 298 297 297 297 297 297 297 298 298 298 298 298 298 298 298 299 298 298 300 301 302 302 302 302 302 302 302 301 301 302 302 302 302 302 302 302 302 302 302 302 302 302 302 301 301 301 302 303 304 305 305 306 306 305 304 304 304 304
300 300 300 299 298 298 299 299 299 300 300 300 300 301 301 301 300 298 297 297 297 297 297 297 298 298 298 298 298 298 298 298 298 298 298 298 298 298 298 298 298 298 298 298 298 301 302 301 301 301 302 301 301 301 301 301 301 301 301 301 301 301 301 301 302 302 302 302 302 301 301 301 301 301 303 305 306 305 305 305 304 303 302 302 301
299 298 298 299 299 299 299 299 299 299 300 300 300 300 300 301 301 300 299 299 298 297 297 297 297 297 298 298 298 298 298 298 297 297 297 297 297 297 297 298 298 298 298 298 300 301 301 301 301 301 301 300 300 300 300 300 300 300 300 300 300 300 301 301 301 301 301 301 301 301 301 301 301 300 301 303 304 303 302 302 302 302 301 300 299
299 297 297 298 299 299 299 299 299 299 299 299 300 300 299 299 300 300 300 300 299 299 298 297 297 296 297 297 297 297 297 297 297 297 297 297 298 297 298 299 299 299 299 299 300 301 300 300 300 300 300 300 300 299 299 299 299 299 299 299 299 299 300 300 300 300 300 300 299 300 300 300 300 300 300 301 302 302 301 300 300 300 299 298 298
299 298 297 297 298 299 299 298 298 299 299 299 299 299 299 299 299 299 299 299 299 299 299 298 297 297 296 296 296 296 296 296 297 297 297 297 297 297 298 300 300 299 299 300 300 300 299 299 299 299 299 299 299 299 299 299 299 299 299 299 299 299 299 299 299 299 299 298 298 298 299 299 299 299 299 298 298 299 299 299 298 298 297 297 297
299 299 298 298 298 298 298 298 298 298 298 299 299 298 298 298 298 299 299 299 299 299 299 299 298 298 297 297 296 296 296 296 296 296 296 297 297 297 298 299 299 299 299 299 299 298 298 298 298 298 298 298 298 298 297 298 298 298 298 298 298 298 298 298 298 298 298 298 297 298 298 298 298 298 297 296 296 296 296 296 296 296 296 296 296
299 299 299 298 298 298 298 298 297 297 297 298 298 298 298 298 298 298 298 298 298 298 299 299 298 298 298 297 296 296 296 296 296 296 297 297 297 297 298 298 298 298 298 298 298 297 297 297 297 296 296 296 296 296 296 296 297 297 297 298 298 298 297 297 297 297 298 298 297 297 297 297 297 296 296 295 295 295 295 295 295 295 295 295 294
299 299 298 297 297 298 298 298 297 297 297 298 298 298 298 298 297 297 298 297 297 298 298 298 298 298 298 297 296 296 296 297 297 297 297 297 297 297 297 297 297 297 297 297 296 296 295 296 296 295 295 295 295 295 296 296 296 296 296 297 297 297 297 296 297 297 297 297 296 296 296 295 295 295 294 295 295 294 294 294 294 294 294 293 293
299 299 298 296 296 297 297 297 297 297 297 298 298 297 297 297 297 297 297 297 297 297 297 297 297 297 296 296 296 296 296 297 297 297 297 296 296 296 296 296 295 295 295 295 295 295 295 295 295 295 295 296 295 295 295 296 296 295 295 296 296 296 297 297 296 296 296 296 295 294 294 293 294 294 294 294 294 294 293 293 293 293 292 292 293
299 299 298 297 296 296 296 297 297 297 297 297 298 297 297 297 297 297 297 296 296 296 296 297 296 296 295 295 295 295 296 297 297 296 296 295 295 295 295 295 294 294 295 295 296 295 295 295 295 295 296 296 295 294 294 295 295 295 295 295 295 296 296 296 295 295 294 294 294 293 293 293 293 293 293 293 293 292 292 292 292 292 292 292 292
299 299 298 297 296 296 297 297 297 298 297 297 297 298 297 296 296 296 296 296 296 296 296 296 296 295 294 294 294 295 295 296 296 296 295 295 294 294 294 294 294 295 295 296 296 295 295 295 295 295 295 296 295 294 294 294 295 295 295 295 295 295 295 295 295 294 294 293 293 293 293 293 293 293 292 292 291 291 291 291 291 292 292 292 291
299 299 298 298 297 297 297 297 297 298 297 297 297 297 297 296 296 296 295 295 296 296 296 296 296 295 294 293 294 295 295 295 295 295 294 294 294 294 294 294 295 295 295 295 295 295 295 295 295 295 295 295 295 294 294 294 294 295 295 295 294 294 294 294 293 293 293 293 292 292 292 292 292 291 291 291 291 291 291 291 291 291 291 291 291
299 299 298 298 297 297 296 297 297 298 297 297 297 296 296 296 296 296 295 295 295 295 295 295 295 295 295 294 294 295 295 295 294 294 294 294 294 295 295 295 295 295 295 295 295 296 296 295 295 295 295 295 294 294 294 294 294 294 294 294 293 293 293 293 292 292 292 292 292 291 291 291 291 291 291 291 291 291 291 291 291 291 291 291 292
298 298 298 298 297 297 296 297 297 297 297 296 296 296 296 296 296 296 295 295 295 295 295 295 295 295 295 294 294 294 294 294 294 294 294 294 295 295 295 295 295 295 295 295 296 296 296 295 295 295 295 295 295 294 294 294 294 294 293 293 293 293 293 293 292 292 292 291 291 291 290 290 290 291 291 291 291 291 291 291 291 291 291 291 291
298 298 298 298 297 297 296 297 297 297 296 296 296 296 296 296 296 295 295 295 295 295 295 295 294 294 294 294 294 294 294 294 294 294 294 294 295 295 295 295 295 295 295 295 295 295 295 294 294 294 294 294 294 294 293 293 293 293 293 293 293 293 293 292 292 291 291 291 291 291 291 291 291 291 291 291 291 291 291 291 291 291 291 291 291
299 298 298 297 297 296 296 296 297 297 296 296 296 296 296 296 295 295 294 294 295 295 294 294 294 294 294 294 294 294 294 294 294 294 294 294 294 294 295 295 294 294 294 294 294 294 294 293 293 293 293 293 293 293 293 293 293 293 292 292 292 292 292 291 291 291 290 290 291 291 291 291 291 291 291 291 291 291 291 291 291 291 291 291 291
298 298 297 297 297 296 296 296 296 296 296 296 296 296 296 296 295 294 294 294 294 294 294 294 294 294 294 294 294 294 294 294 293 293 293 293 293 293 294 294 293 293 293 293 293 293 293 293 293 293 293 293 293 292 292 292 292 292 292 292 292 291 291 291 291 290 290 290 290 291 291 291 291 291 291 291 291 291 291 291 291 290 290 291 291
298 298 297 297 297 296 296 296 296 296 296 296 295 295 295 295 295 294 294 294 294 294 294 294 294 294 294 294 294 294 294 293 293 293 293 293 293 292 293 293 292 292 292 292 293 293 292 292 292 292 292 292 292 292 292 292 292 291 291 291 291 291 290 290 290 289 289 290 290 290 290 290 291 291 291 291 291 291 291 291 291 290 290 290 290
297 297 297 297 297 296 296 295 296 296 296 296 295 295 295 295 295 294 294 294 294 294 294 294 294 294 294 293 293 293 293 293 293 293 293 293 292 292 292 292 292 291 291 292 292 292 292 292 292 292 292 292 292 292 291 291 291 290 289 289 289 289 289 288 288 289 290 290 290 290 290 291 291 291 290 290 290 290 291 290 291 291 290 290 290
297 296 296 297 297 296 296 295 295 295 296 296 296 295 295 295 294 294 294 294 294 294 294 294 294 294 294 293 293 293 293 293 293 293 293 292 292 291 291 291 291 291 291 291 290 290 290 290 290 290 290 291 291 290 290 289 288 287 287 287 287 287 287 287 287 289 290 291 290 290 291 291 291 291 291 290 290 290 290 290 291 291 291 290 290
296 296 296 296 296 296 296 295 295 295 295 295 295 295 295 295 295 294 294 294 294 294 294 294 294 294 293 293 293 293 293 293 293 293 293 292 291 291 291 291 291 291 290 290 289 289 289 288 288 287 288 288 288 288 288 288 287 288 288 288 287 287 288 288 288 289 290 290 290 290 291 290 290 291 291 291 291 291 291 290 290 291 291 290 290
Wind_Speed
30 32 28 27 29 29 28 27 24 22 21 21 21 19 18 18 19 20 18 17 16 15 12 12 13 13 11 10 10 11 11 11 12 12 10 10 10 10 11 11 10 9 10 10 9 10 11 12 14 13 12 14 13 13 14 12 12 13 11 9 10 12 12 12 13 13 11 10 9 10 12 12 12 11 12 12 9 7 10 11 8 6 6 7 7
32 32 30 29 29 29 28 27 24 22 22 23 22 20 20 20 20 19 16 15 14 13 12 11 11 10 10 9 9 9 10 9 10 11 11 10 10 10 11 11 10 10 10 10 10 10 10 12 14 12 12 14 14 14 13 12 12 12 11 9 10 14 14 12 16 15 12 11 10 10 12 12 12 13 13 13 10 7 9 12 10 7 6 6 6
33 32 30 29 29 29 28 27 25 24 24 24 23 21 20 19 18 16 15 16 15 13 12 12 11 10 10 9 8 8 9 9 9 10 10 10 10 11 11 11 11 10 10 10 10 10 11 12 13 13 13 12 12 14 13 13 12 11 11 10 11 15 14 10 15 17 13 12 12 11 12 12 12 13 14 14 12 9 9 13 12 11 9 7 8
32 30 28 27 27 28 27 27 26 26 27 26 23 22 20 19 18 16 15 16 16 14 14 12 12 11 10 8 7 7 8 9 9 9 9 10 10 10 10 10 10 10 9 9 9 10 12 13 12 13 15 13 13 15 14 12 12 12 12 11 11 14 11 6 11 16 15 13 12 12 14 13 12 13 14 14 14 12 11 12 13 13 12 10 10
32 31 29 27 27 28 28 28 27 28 29 27 24 22 20 19 18 16 15 15 15 15 14 13 12 11 10 8 7 6 7 7 7 7 8 9 8 8 8 8 8 9 8 7 8 9 11 13 13 13 14 14 15 16 15 13 12 12 13 12 11 13 11 7 8 11 12 13 13 12 13 13 12 12 14 14 14 13 12 12 12 13 12 12 13
31 32 32 31 29 30 31 30 28 28 27 25 23 21 20 19 18 16 14 14 14 14 14 13 11 11 10 9 7 6 6 6 6 6 6 6 6 7 7 7 7 8 8 8 9 8 8 10 12 13 15 16 16 17 15 14 13 12 13 13 12 13 13 10 10 10 10 11 13 12 12 12 12 12 13 13 14 13 12 12 12 12 12 12 14
31 33 34 35 33 32 32 31 29 27 25 24 22 20 19 19 17 15 15 14 14 14 13 12 11 10 10 9 7 6 6 6 6 6 6 6 7 7 7 7 8 9 10 9 9 8 8 8 9 11 13 14 16 17 15 14 14 13 13 14 14 15 15 13 12 12 11 11 12 12 12 13 13 13 12 13 14 13 13 13 12 13 14 14 15
31 34 36 37 36 34 31 30 28 25 23 23 22 21 19 18 16 15 15 14 14 13 12 12 11 10 10 10 8 7 7 8 9 9 8 7 7 7 7 7 8 9 10 9 9 9 9 8 7 8 10 12 14 15 15 14 14 13 13 14 14 13 14 13 13 13 13 13 13 12 12 13 14 14 13 13 15 15 14 15 14 14 15 16 18
29 33 36 37 37 34 30 29 27 26 23 21 21 20 19 18 16 14 14 13 13 12 12 11 10 9 10 9 8 9 11 13 14 13 11 10 9 7 8 8 8 9 10 10 10 10 9 8 9 10 11 13 14 15 16 16 15 14 13 14 13 12 11 12 13 13 13 14 14 14 14 14 15 15 15 15 16 16 15 16 16 16 15 16 17
28 31 33 35 34 31 28 28 27 26 25 23 23 21 19 19 17 14 14 13 12 12 11 10 10 9 9 9 10 13 16 16 15 15 15 14 12 9 8 8 8 9 10 11 10 10 10 9 11 13 14 14 15 15 16 17 17 17 15 15 15 14 12 12 13 14 14 14 15 15 15 16 16 16 16 17 16 15 15 16 17 17 17 17 17
24 26 28 31 32 30 28 28 28 27 26 26 27 25 22 20 18 15 14 13 12 13 12 11 10 9 9 10 13 16 17 17 17 17 17 16 15 12 8 7 8 8 10 11 10 10 10 9 11 14 15 14 14 14 14 15 16 17 18 18 18 17 16 15 15 15 15 15 15 15 15 16 16 16 16 16 17 17 17 18 18 18 18 18 19
24 24 24 26 28 29 29 29 30 30 28 28 29 28 25 23 21 19 17 14 13 12 11 11 10 11 12 13 13 12 14 16 16 17 17 17 16 14 9 6 7 7 7 9 9 9 9 9 9 11 13 15 16 15 15 15 15 16 18 19 20 19 18 18 17 15 15 15 16 16 16 16 15 16 16 16 16 17 18 19 19 19 20 21 21
25 25 25 24 24 27 29 30 31 31 30 29 29 28 27 25 24 23 20 19 17 14 13 13 12 12 13 12 10 9 10 12 12 13 15 15 15 14 9 6 7 6 6 7 8 8 9 9 9 7 8 12 15 14 14 14 15 17 18 19 20 20 20 20 20 18 16 15 15 15 16 15 15 16 16 16 18 18 18 19 20 20 21 22 22
20 21 22 22 22 24 26 27 29 29 28 28 28 27 26 25 22 20 19 19 20 19 17 16 13 10 10 11 10 9 9 9 8 9 11 11 12 13 10 7 7 7 6 7 7 8 8 8 8 8 7 10 11 11 10 10 12 15 18 19 20 20 21 21 21 21 20 19 18 16 15 14 14 15 15 15 17 18 18 17 18 19 19 21 22
16 17 17 17 17 19 21 24 25 25 25 26 26 25 26 24 21 18 17 18 19 18 17 15 11 9 10 12 12 11 10 9 8 8 8 8 8 10 9 7 7 7 6 6 7 7 7 7 6 6 7 8 10 11 12 11 10 11 12 15 17 18 19 20 21 22 23 22 22 22 21 19 17 17 17 16 16 18 19 19 19 19 20 21 22
16 16 17 16 16 17 19 21 22 22 23 23 23 23 23 22 20 17 16 16 16 15 13 11 11 12 13 13 12 11 11 10 9 8 8 7 7 7 7 6 6 7 7 8 7 6 7 8 7 6 9 11 11 13 14 14 14 13 12 12 14 15 16 18 20 21 22 22 23 24 25 25 24 23 22 20 19 19 20 20 20 21 23 23 23
17 16 17 19 19 19 18 19 20 20 20 19 19 18 16 14 14 13 13 13 12 12 11 10 12 15 15 14 12 12 11 11 10 9 8 8 8 6 5 6 7 7 8 8 7 8 10 11 10 11 13 14 14 15 16 15 16 17 17 16 15 16 16 16 17 20 21 23 24 25 26 27 27 27 26 26 25 24 23 22 22 22 24 25 25
18 16 16 17 19 19 18 18 18 18 17 14 13 12 11 11 12 13 13 13 13 14 15 15 15 17 17 15 13 12 12 11 11 10 10 9 10 8 5 4 6 6 6 6 6 8 11 11 12 13 14 14 15 16 16 16 17 18 19 20 19 19 19 18 20 22 23 24 26 27 27 27 27 28 29 29 30 30 30 31 29 27 28 29 27
19 18 16 15 15 15 16 16 14 13 12 10 10 11 13 14 14 14 13 13 14 15 16 16 16 16 16 14 13 13 12 11 11 11 11 11 11 11 8 4 4 5 5 4 4 6 11 13 13 14 15 16 17 18 18 19 20 20 21 23 23 23 23 24 26 27 27 27 28 28 29 30 31 32 33 33 33 34 34 36 34 32 33 34 32
17 17 16 15 14 14 14 13 12 11 11 10 9 10 12 13 14 14 14 14 15 16 16 16 16 16 15 13 12 12 11 11 11 11 12 12 12 13 13 11 9 10 9 7 5 4 9 15 17 16 16 17 17 18 19 20 20 21 22 23 23 24 26 27 28 29 30 30 30 30 31 31 32 33 34 35 34 35 36 37 37 37 38 37 33
15 14 14 14 14 14 13 13 12 11 11 11 11 11 11 11 11 11 11 12 12 12 12 13 13 13 12 11 11 11 11 11 11 11 12 13 13 14 16 15 14 14 13 13 11 7 6 11 16 17 17 17 17 17 19 20 21 22 22 23 25 26 28 29 29 29 30 30 29 29 29 30 30 31 32 34 34 34 34 35 35 36 39 39 36
13 13 13 13 13 12 12 12 11 10 8 8 9 10 10 9 9 9 8 8 9 9 9 9 9 9 10 9 9 11 12 11 12 12 12 13 13 14 15 15 15 16 15 15 15 13 12 15 18 18 19 20 21 21 22 23 25 25 26 27 28 29 31 32 32 32 32 31 31 30 29 30 32 32 33 34 33 32 33 35 34 33 34 37 38
12 12 12 11 11 11 10 10 11 10 9 8 7 8 8 8 8 8 9 8 8 8 9 10 9 9 10 10 11 12 12 12 13 14 14 13 13 14 15 15 16 18 18 18 18 18 19 22 22 22 24 26 27 26 26 27 27 28 29 29 31 31 33 34 34 34 35 35 35 35 35 35 35 35 34 34 32 32 34 37 36 34 32 32 36
14 13 13 12 11 10 9 8 8 9 9 9 7 6 7 7 7 8 8 7 5 5 6 6 6 5 6 7 8 9 10 11 12 12 12 13 13 14 15 16 17 17 17 18 18 19 20 22 22 23 26 28 28 28 28 28 28 29 29 29 29 30 32 33 34 35 36 37 37 39 40 40 39 38 37 36 35 35 35 34 32 32 32 31 33
15 14 13 13 12 11 10 9 7 7 7 6 6 6 5 4 4 5 6 5 4 3 3 3 3 2 1 1 2 4 6 7 9 10 10 12 12 13 13 14 14 15 15 16 18 18 20 20 20 21 23 23 24 25 26 26 26 27 27 27 27 28 30 32 33 34 35 36 35 35 34 33 32 31 31 31 33 33 34 32 29 29 31 32 33
14 14 13 13 12 11 10 10 8 7 8 7 6 7 7 5 4 4 4 3 3 3 3 3 3 3 3 2 1 1 2 2 5 10 10 10 10 11 12 12 13 13 13 15 17 19 19 19 18 19 20 20 21 22 23 23 23 24 24 24 23 24 24 24 24 24 24 24 24 23 23 22 22 22 22 24 27 29 31 34 33 31 30 30 31
13 13 12 12 11 10 10 10 9 7 7 7 6 6 7 6 4 4 4 4 4 3 3 4 4 3 3 3 2 3 4 4 6 9 10 9 9 10 10 10 11 11 11 13 16 18 18 18 17 17 17 17 18 18 19 19 19 18 18 17 17 18 17 15 15 17 18 19 19 19 20 19 19 20 19 20 23 24 24 27 29 31 30 29 28
11 11 10 10 10 10 9 9 9 7 5 5 4 4 6 5 2 3 5 6 5 5 5 4 3 4 4 3 3 4 2 7 11 10 8 7 7 8 8 8 9 10 10 12 13 14 15 15 15 15 14 14 14 14 14 15 14 14 13 12 14 16 16 16 17 19 20 20 21 21 21 21 20 19 18 19 20 19 18 19 22 26 30 29 27
10 9 8 8 9 9 9 9 8 7 6 6 6 4 4 3 1 1 2 3 5 6 6 5 6 6 4 2 3 5 4 8 9 8 7 6 6 6 7 7 8 9 9 10 10 11 11 12 11 10 9 9 9 9 9 10 10 10 11 12 13 14 15 16 17 18 18 19 19 20 20 20 20 19 18 18 18 17 17 19 20 22 27 28 25
9 9 8 8 8 9 8 8 8 8 6 5 7 8 8 6 4 3 3 2 1 3 4 3 4 5 5 3 5 7 7 7 6 5 6 6 6 6 7 7 8 8 9 10 10 10 10 10 8 7 7 8 8 9 9 10 10 10 11 12 12 13 13 14 15 16 17 18 21 21 20 20 21 21 20 20 20 20 21 23 22 20 23 25 24
8 9 10 10 11 10 9 9 8 8 7 6 5 6 9 10 9 8 7 6 5 3 2 2 1 2 3 2 1 2 3 3 2 3 4 4 5 5 6 7 8 9 9 9 9 8 8 8 7 7 8 9 10 10 11 11 11 12 12 13 13 13 13 14 14 16 16 18 21 22 20 19 19 20 20 22 23 24 25 27 26 24 24 25 24
9 9 10 10 11 11 10 9 9 8 6 6 5 4 5 7 8 9 10 10 8 5 4 4 3 2 1 1 2 2 1 1 2 2 2 2 3 4 5 6 7 8 8 8 7 7 8 8 8 8 9 10 10 11 11 11 12 12 12 13 13 13 13 14 15 16 17 18 21 21 19 18 19 19 20 21 22 24 26 26 26 25 24 22 21
9 10 9 8 9 10 10 9 10 9 7 6 6 5 5 5 6 8 10 12 12 8 6 4 3 3 2 2 2 3 3 1 2 2 1 2 2 3 6 8 9 9 10 9 8 8 8 9 9 9 10 11 10 10 10 10 11 11 12 13 13 13 13 14 16 16 16 17 19 19 17 17 17 17 18 18 19 20 22 24 24 23 22 22 22
7 10 10 9 7 9 9 9 9 9 7 6 6 6 5 5 5 6 7 10 12 12 10 8 5 3 3 2 1 2 2 1 2 2 2 3 4 5 9 11 12 13 14 13 10 8 9 9 10 10 11 11 11 11 10 10 11 11 11 12 13 13 13 13 14 15 16 17 17 17 16 15 15 15 14 15 16 18 20 22 22 20 21 22 22
6 8 11 10 8 7 8 8 8 7 6 5 4 4 4 4 5 5 5 6 7 9 10 11 10 8 8 6 2 1 2 2 3 4 5 5 4 4 7 10 10 10 12 11 9 8 9 9 9 9 9 10 10 11 11 11 11 11 11 11 13 13 14 13 13 13 15 16 17 17 16 16 17 16 13 12 13 14 18 20 19 19 19 21 20
4 6 8 8 7 6 6 6 6 5 4 3 3 3 3 4 4 4 5 5 4 4 6 8 10 13 15 12 6 3 3 4 4 5 5 6 5 3 5 8 8 7 7 8 8 8 8 8 9 9 9 9 10 10 11 12 11 11 12 12 12 13 14 15 16 17 18 19 21 19 16 14 15 13 10 9 9 10 12 15 16 17 16 14 12
3 3 5 4 4 5 6 5 6 6 2 1 2 3 3 3 4 4 4 5 4 3 3 4 6 9 12 12 9 5 4 6 7 7 7 8 7 6 6 7 7 6 7 7 8 8 7 8 8 8 9 9 10 10 10 11 10 10 11 11 11 10 12 14 16 17 16 17 18 17 13 11 10 9 9 10 11 12 13 15 15 14 13 11 9
4 3 4 4 4 3 4 5 6 6 4 1 1 2 2 2 4 4 4 4 4 3 3 4 4 4 6 8 8 5 6 9 9 8 7 7 6 6 5 6 6 6 6 7 7 8 7 7 8 8 9 9 9 9 9 9 10 10 11 10 8 8 10 12 13 13 12 11 11 10 9 9 8 7 9 10 11 12 12 12 11 9 9 9 8
5 6 6 5 3 2 3 4 5 5 3 2 2 2 2 2 3 3 3 3 3 3 3 3 4 4 4 6 5 3 6 7 6 4 4 4 4 4 5 4 4 5 5 6 7 7 7 7 8 9 9 9 8 8 9 9 9 9 9 8 6 8 11 11 10 9 7 6 6 6 5 4 3 4 5 5 6 6 6 6 5 5 6 7 6
4 6 6 5 2 2 3 4 3 3 2 2 2 2 2 2 2 2 2 2 2 2 2 2 2 3 4 5 3 2 4 4 3 3 3 3 3 3 3 3 4 4 5 6 7 7 7 7 8 9 11 10 8 7 9 9 8 7 7 7 7 8 7 5 4 4 4 5 6 5 3 2 2 2 2 2 2 2 2 2 2 2 4 6 6
5 5 5 4 4 2 3 4 4 4 4 3 3 3 2 2 2 2 2 2 1 2 2 1 1 2 5 5 4 6 6 3 2 2 3 3 3 3 4 5 5 5 5 6 7 8 8 8 9 11 12 11 8 8 9 10 9 8 6 5 4 5 5 5 6 6 6 5 5 4 3 2 2 2 2 3 4 5 6 7 7 6 4 3 3
6 5 4 3 4 3 3 4 5 5 5 4 4 4 3 2 2 2 1 1 1 2 2 1 1 3 7 5 6 8 6 3 1 1 2 3 4 5 6 6 6 5 6 7 8 9 10 10 11 12 12 12 12 11 9 9 10 10 8 6 7 8 7 6 6 6 5 4 4 4 4 4 4 4 6 6 7 7 7 7 6 5 4 4 3
6 5 4 4 4 4 5 5 4 4 4 4 4 3 3 3 2 2 1 1 1 1 1 1 1 2 6 6 4 6 4 3 2 2 3 5 6 8 9 9 9 9 9 9 9 9 10 10 10 10 10 11 12 12 11 9 9 9 8 7 6 7 7 7 6 6 5 5 5 5 5 5 6 6 7 8 7 7 7 6 5 4 4 3 3
5 5 4 4 3 4 5 4 3 4 6 7 7 6 4 3 3 2 1 2 1 1 1 0 1 1 2 3 2 3 3 3 3 5 6 8 8 8 9 9 10 9 9 8 8 8 8 8 9 9 10 11 11 10 10 9 7 6 6 5 3 3 3 3 3 4 5 5 6 6 6 6 6 6 6 7 6 6 6 5 5 4 4 4 4
5 5 4 3 3 4 4 4 3 3 6 5 5 5 4 3 3 2 1 1 1 1 1 1 1 2 2 2 3 3 4 4 5 6 8 8 8 8 8 8 8 8 8 8 8 8 8 9 9 9 10 10 9 9 9 8 7 6 5 4 3 3 3 4 3 3 4 5 6 5 5 5 5 5 6 6 6 5 5 4 4 4 4 4 5
5 4 4 3 4 4 5 4 3 4 5 5 3 4 4 4 3 2 2 1 2 1 1 2 2 2 3 3 3 4 4 4 5 6 6 6 6 6 7 7 7 7 8 8 7 8 9 9 8 8 7 7 7 6 6 7 7 6 5 4 4 3 3 3 3 3 4 5 5 5 5 6 6 6 7 6 5 5 4 4 4 4 5 5 6
6 4 3 3 4 5 5 5 5 5 5 4 4 4 5 4 3 2 2 2 2 2 2 2 2 2 2 3 3 3 3 3 3 4 4 4 4 4 4 4 5 5 6 6 6 6 6 6 6 6 5 5 4 4 5 5 5 5 4 4 4 3 2 2 3 3 3 3 4 4 5 6 6 6 7 6 5 5 5 5 5 6 6 6 6
6 5 4 4 4 5 5 6 6 5 4 3 3 4 4 4 2 2 2 2 2 2 2 2 2 2 2 2 2 2 3 3 3 3 3 3 2 2 3 3 3 3 3 3 3 3 3 3 3 3 3 3 4 4 3 4 4 5 5 4 3 2 2 2 2 3 4 5 5 5 6 6 5 6 6 7 6 6 6 6 7 7 7 7 6
7 7 6 5 5 5 5 5 6 5 3 3 3 3 3 3 2 2 3 2 2 2 2 2 2 2 2 2 2 2 2 2 2 2 2 2 1 2 3 4 4 3 2 3 3 2 2 2 2 3 3 4 4 5 5 5 4 4 4 3 2 2 2 2 3 5 7 7 6 5 5 6 6 6 6 7 7 7 7 7 8 7 7 7 7
8 8 7 7 6 5 5 5 6 5 3 2 3 4 3 3 3 3 3 2 3 3 2 2 2 2 1 2 2 2 2 2 1 1 1 1 1 1 2 4 5 4 4 3 3 3 3 3 3 3 3 3 3 4 4 4 3 3 3 2 2 1 1 1 2 4 7 7 5 5 5 5 5 4 5 6 6 6 6 6 7 7 6 7 7
7 7 8 7 6 6 5 5 5 5 3 3 3 4 4 3 3 3 3 3 3 3 3 2 2 2 2 2 2 1 1 1 1 1 1 1 0 1 2 3 4 4 4 3 3 2 2 3 3 2 2 2 2 3 3 2 2 2 2 1 1 1 2 3 3 3 6 6 5 3 3 4 3 2 2 3 5 6 7 6 6 6 5 5 6
Wind_Direction
177 177 176 180 183 179 177 180 179 176 176 181 180 175 174 176 180 183 181 183 186 181 178 180 182 184 187 194 202 205 207 209 210 209 206 211 210 202 209 215 205 202 206 205 205 208 206 201 195 192 188 190 194 193 189 181 174 177 184 191 183 175 181 179 163 156 163 171 170 174 180 181 183 184 182 198 221 205 191 212 233 232 228 232 229
177 177 178 180 182 178 177 178 175 175 178 177 174 173 175 176 176 174 169 171 173 168 169 176 178 183 188 193 201 208 211 213 216 214 207 210 211 205 208 208 204 207 210 207 205 203 202 201 199 195 192 198 197 188 184 181 177 179 185 189 180 179 189 182 160 157 164 175 180 180 183 187 191 192 194 205 220 218 201 210 229 241 243 250 248
174 174 175 177 177 173 175 174 170 175 180 175 174 175 173 172 169 165 164 166 164 163 171 176 176 181 188 191 199 207 207 208 214 214 209 209 208 205 205 204 202 206 212 212 206 202 201 198 200 200 196 198 192 181 181 183 182 184 186 184 174 179 199 194 160 161 171 180 187 188 188 193 198 199 202 210 221 229 216 211 220 234 242 245 243
174 172 172 173 173 170 172 173 171 177 180 176 175 175 172 171 166 163 166 164 160 167 175 175 175 180 184 187 194 200 203 208 210 207 209 209 205 205 206 203 201 202 205 208 202 205 208 196 196 203 198 193 187 180 182 186 188 188 185 181 173 179 202 210 166 168 176 181 190 197 196 197 202 206 206 209 216 222 222 219 220 225 233 240 241
174 171 171 171 171 172 176 178 178 179 179 176 174 173 171 169 164 162 164 163 164 170 173 172 176 179 181 185 190 194 200 205 202 199 207 207 201 206 206 198 199 196 190 192 195 206 210 196 192 198 196 194 188 181 183 189 190 188 186 184 179 181 194 202 180 179 183 185 192 202 203 200 203 212 211 210 213 216 220 225 227 230 233 241 247
172 170 172 172 173 177 180 181 178 177 176 175 171 169 169 166 163 163 165 166 167 168 171 173 176 181 183 182 186 195 198 196 193 193 197 193 188 196 197 192 196 190 179 184 192 195 198 193 193 193 193 196 191 181 184 190 189 189 190 190 186 184 191 199 197 200 205 202 200 202 206 207 208 213 214 216 218 218 222 227 233 238 238 241 252
172 173 175 176 177 180 181 179 175 173 175 174 169 168 168 166 165 168 169 169 168 168 172 174 176 181 182 179 185 197 197 196 199 196 191 187 180 179 183 185 190 186 180 185 190 187 187 189 192 192 195 201 195 185 187 192 192 194 193 196 199 192 191 199 206 209 215 219 216 211 209 211 215 217 218 222 224 224 229 233 236 239 238 238 246
169 171 173 176 180 181 179 177 177 176 177 177 175 174 172 168 169 172 170 168 168 170 171 174 176 178 179 180 184 189 194 199 200 193 190 193 190 185 184 183 183 182 181 188 193 194 193 188 187 192 198 202 196 192 195 196 198 202 199 202 210 202 192 200 211 215 216 218 224 225 219 216 218 221 225 227 229 231 233 238 243 242 240 241 241
162 166 170 176 181 183 179 175 177 178 176 175 176 178 175 171 171 172 171 167 167 169 170 172 172 173 178 179 176 185 199 204 198 188 183 183 188 199 200 190 190 190 186 189 194 195 197 194 193 198 202 202 197 196 201 201 200 206 208 210 217 214 205 207 214 220 222 221 224 226 226 224 222 224 229 228 231 237 236 240 247 249 250 251 246
160 163 168 173 177 181 179 175 177 179 178 175 173 171 170 171 170 169 168 165 164 166 167 166 168 172 173 168 173 192 202 203 198 191 185 178 176 191 208 202 200 205 205 205 206 206 207 208 211 213 211 208 205 203 208 209 204 205 211 215 216 218 220 222 223 226 228 228 228 227 228 230 228 229 230 229 234 239 237 240 247 250 252 253 250
158 160 165 169 172 175 177 177 179 181 181 181 179 173 169 170 169 164 163 162 161 162 161 160 160 157 158 171 191 202 204 202 200 196 191 183 174 175 189 204 205 209 215 217 220 223 220 220 230 233 228 222 218 214 216 218 214 210 212 216 216 216 220 225 229 234 236 236 235 233 232 235 236 236 235 236 239 240 240 244 249 249 251 251 252
152 153 155 161 167 171 175 178 182 184 183 184 185 181 175 171 167 162 157 154 154 156 157 157 154 158 174 193 207 208 204 205 207 205 200 196 189 179 175 200 212 211 217 218 221 227 223 220 231 240 238 232 228 225 222 223 220 214 214 217 219 218 220 224 226 231 238 241 242 243 242 244 244 241 241 243 245 247 247 247 248 250 251 251 253
152 151 151 155 163 172 179 182 184 184 183 183 185 185 182 176 172 170 165 157 154 154 158 158 161 175 194 206 207 197 196 200 203 206 204 204 204 193 182 204 218 213 217 217 219 223 217 212 215 223 233 233 229 226 228 231 230 226 224 226 229 231 232 231 229 229 233 238 243 248 251 252 253 253 252 250 250 253 253 250 249 251 253 254 255
151 153 157 162 168 176 184 185 184 183 182 182 184 186 186 183 180 181 180 173 166 164 166 169 177 193 201 199 196 193 190 186 185 191 194 197 201 192 180 193 211 209 210 211 214 217 208 205 208 210 223 232 225 218 221 232 242 244 243 242 244 246 245 241 237 237 238 238 240 246 249 251 256 258 256 255 253 251 250 250 252 254 255 256 256
145 148 152 158 164 173 181 184 185 183 181 182 185 186 187 186 184 186 187 183 180 180 181 187 201 213 204 198 200 199 192 186 178 177 179 182 188 186 183 190 200 204 209 206 207 212 210 211 214 216 230 232 224 220 220 222 235 249 254 254 254 255 254 252 249 248 248 247 248 250 249 249 252 252 252 256 255 248 246 250 254 253 253 255 257
132 139 141 143 150 161 170 177 181 180 179 181 183 182 184 183 184 188 186 182 185 190 191 202 219 220 212 208 207 203 200 197 189 184 184 180 179 188 199 203 198 202 212 208 201 207 215 217 216 223 233 233 228 231 234 235 240 249 255 259 261 261 260 262 264 263 262 260 257 257 256 256 256 254 252 251 250 250 254 256 254 253 254 255 257
116 126 133 138 145 151 158 166 169 170 170 172 172 171 175 178 181 188 190 191 200 205 202 214 225 222 216 212 206 204 206 206 200 198 197 192 186 184 197 213 209 209 219 216 205 214 224 222 218 222 231 235 237 242 248 251 253 255 258 260 260 261 262 265 269 271 269 265 261 258 259 261 263 262 259 254 251 253 257 257 256 256 256 257 259
104 108 117 128 138 147 152 155 157 158 160 165 172 175 185 198 203 204 207 215 225 223 214 215 221 220 217 214 210 209 209 207 206 205 204 206 205 194 190 224 228 220 234 239 229 237 246 242 235 236 240 245 248 251 254 255 255 256 259 260 261 264 263 259 259 260 261 265 266 261 258 260 263 264 264 262 260 259 258 259 260 259 257 258 260
101 105 110 117 128 137 141 144 148 154 160 173 188 191 195 202 203 201 203 209 212 208 204 204 206 209 211 211 209 209 206 205 207 210 211 216 220 210 196 199 222 216 223 243 249 262 267 261 251 250 254 255 257 259 258 258 259 258 260 262 263 264 262 260 261 262 263 266 268 265 262 262 262 263 262 262 261 261 260 261 261 258 258 261 262
105 112 116 119 121 122 123 127 133 139 147 156 168 178 185 191 190 188 189 191 193 194 195 197 200 203 206 206 208 210 212 212 212 216 218 218 223 223 214 208 216 220 218 223 227 253 278 276 268 261 258 255 256 261 263 263 264 263 264 266 267 267 267 266 267 268 268 268 268 269 270 270 269 268 267 265 264 262 261 261 260 259 258 259 260
110 116 119 120 118 117 119 121 124 131 138 143 151 161 168 175 179 182 185 188 190 193 195 199 204 207 207 209 214 219 224 225 222 222 224 219 218 226 227 224 228 232 232 233 227 213 244 271 267 261 260 261 263 268 270 271 272 271 271 272 271 272 273 274 273 273 273 273 273 273 272 271 271 271 272 273 272 270 268 264 261 261 260 259 259
105 108 111 113 113 116 120 123 127 132 133 139 155 163 164 169 176 179 185 192 195 195 200 206 209 212 217 224 231 234 235 237 236 233 232 230 227 230 234 236 239 241 242 245 242 231 230 244 252 260 270 274 275 275 274 272 272 272 272 273 274 275 276 276 276 276 276 276 275 274 272 271 271 272 273 272 268 268 272 271 267 264 263 263 264
92 96 98 101 104 109 117 126 134 139 141 149 167 174 171 174 182 188 190 194 198 202 210 219 223 229 236 238 240 243 244 246 247 245 244 244 244 246 249 251 253 255 256 257 257 252 249 253 260 268 273 275 277 277 275 274 274 273 273 273 273 275 275 276 278 278 278 277 274 272 271 269 268 269 272 270 264 262 267 268 267 268 268 266 264
81 86 89 91 92 94 100 111 125 137 142 146 152 158 164 167 173 181 176 166 176 201 209 214 218 229 249 253 250 251 251 250 251 253 255 257 257 258 259 260 263 268 271 271 272 269 267 270 274 275 275 276 279 280 279 279 279 278 277 275 273 273 273 274 275 276 275 274 273 272 272 270 269 268 267 266 267 268 266 261 259 264 268 265 262
71 71 76 81 83 84 84 83 91 107 113 113 116 117 116 120 135 149 148 142 146 157 159 160 164 162 178 252 275 281 284 280 274 269 265 264 265 267 270 272 273 276 279 281 281 280 280 283 284 283 283 284 284 283 283 284 283 283 283 282 280 278 277 276 276 276 275 275 276 276 275 275 275 274 271 266 264 265 266 263 259 259 262 264 266
60 58 59 62 65 71 77 72 64 74 83 76 75 87 84 77 88 96 96 106 122 126 129 130 124 125 124 111 85 24 42 13 293 282 277 279 282 282 284 285 285 286 289 287 286 286 287 290 292 291 290 290 289 289 290 291 291 290 291 291 291 291 290 288 287 286 283 282 282 281 280 278 277 276 275 270 263 260 263 266 263 259 261 267 272
53 50 50 49 45 46 63 71 59 54 73 80 80 87 80 70 85 120 124 112 97 85 82 84 87 88 83 86 89 81 108 173 240 274 291 299 299 295 293 292 289 291 293 292 294 300 303 304 305 305 304 306 307 308 310 311 312 313 312 310 310 310 307 300 290 283 279 279 280 278 275 274 275 275 272 270 268 265 263 264 263 259 260 266 272
53 48 50 52 48 39 45 62 59 44 46 58 74 107 107 85 87 179 184 168 152 139 120 108 120 112 79 55 83 97 139 241 255 278 299 300 293 291 291 292 293 295 296 297 303 311 314 315 320 324 325 326 325 324 325 326 326 325 318 307 303 302 299 292 285 281 278 278 279 277 273 271 273 274 270 268 269 265 256 255 259 260 262 268 273
45 46 48 52 57 48 38 44 51 48 40 22 13 38 90 103 100 203 210 195 190 189 185 194 200 172 128 90 160 161 207 263 275 290 298 294 293 295 294 297 304 307 308 312 317 320 324 334 344 342 333 328 323 320 318 314 310 306 298 292 291 292 291 289 288 288 285 282 280 279 278 276 273 268 264 262 261 257 253 253 255 260 266 269 268
32 31 29 34 50 52 41 37 41 44 47 29 8 11 20 20 25 35 38 50 111 183 196 213 217 185 173 205 213 203 225 262 281 293 304 314 319 319 321 323 324 323 325 328 332 336 345 355 354 338 329 327 323 320 318 314 311 308 304 301 300 298 296 293 291 289 288 287 286 283 280 277 274 271 268 265 259 255 253 252 250 253 260 259 252
27 26 19 18 31 38 35 33 35 35 39 41 27 9 5 6 16 34 44 47 50 60 79 75 79 157 178 227 257 215 223 258 291 307 324 339 346 347 349 344 339 339 337 335 343 355 359 353 341 335 337 333 327 324 322 318 314 309 308 307 305 303 303 301 298 294 291 289 291 293 294 295 292 284 275 268 262 256 252 249 247 247 249 248 245
15 16 11 10 20 26 25 23 27 29 28 31 35 30 11 3 6 16 26 32 34 40 54 57 56 66 80 56 50 71 83 24 346 336 342 6 17 11 1 354 353 351 344 347 5 14 3 349 345 344 338 331 326 324 320 315 311 308 305 303 302 302 304 303 299 297 294 290 289 290 292 295 294 288 278 270 262 254 249 247 245 244 242 238 235
6 6 11 17 16 14 13 12 14 17 18 17 22 27 28 24 7 356 2 12 16 22 35 49 62 65 49 48 76 76 67 36 350 337 331 336 351 8 11 11 11 9 11 19 24 11 354 349 347 340 332 327 324 320 316 314 313 310 306 302 300 300 300 299 297 297 297 295 291 287 283 280 279 280 281 279 271 260 252 249 248 246 237 226 222
360 5 20 38 29 7 4 6 4 5 9 11 17 17 16 25 23 8 1 4 6 8 6 5 18 49 41 30 66 78 60 19 340 337 339 341 360 35 39 28 17 11 17 26 21 356 343 344 342 334 329 325 321 317 316 314 311 310 310 309 307 304 300 299 300 298 294 291 286 279 277 276 275 274 276 278 273 262 253 251 251 244 230 219 217
346 357 15 34 34 7 355 358 359 359 360 359 5 10 11 14 17 16 13 6 2 2 356 348 348 355 355 349 357 29 11 350 342 344 346 342 351 46 51 35 19 7 7 9 1 341 336 337 331 323 318 316 313 310 310 309 306 307 309 309 311 310 303 297 294 290 286 288 290 286 279 276 276 277 277 275 269 257 249 245 240 230 219 214 214
324 336 353 10 13 354 343 349 353 347 336 342 360 10 13 10 5 2 4 359 356 6 1 344 338 342 342 337 335 346 347 342 344 349 350 345 345 15 33 23 12 2 355 350 340 332 334 333 326 320 318 316 313 311 310 310 309 307 303 301 303 306 302 297 295 293 289 290 297 300 294 284 281 282 274 260 247 237 230 223 218 214 209 204 206
303 318 331 331 329 332 333 333 339 344 351 42 20 5 355 355 354 348 345 343 342 354 359 332 326 339 342 335 327 334 10 12 5 6 9 8 9 16 16 5 356 353 351 342 329 328 336 336 331 330 330 326 324 324 323 322 321 316 307 302 303 306 305 305 308 310 303 297 300 304 300 288 280 270 254 238 224 212 202 196 193 192 184 173 166
247 263 300 285 258 295 328 311 314 342 10 41 335 337 339 336 342 342 339 338 337 337 339 331 324 333 336 325 320 349 38 29 14 10 11 11 14 14 2 353 354 355 351 339 329 331 341 342 336 334 335 334 337 340 337 337 341 336 326 325 329 322 310 308 314 317 313 309 314 322 318 302 281 254 238 229 217 207 199 192 185 180 173 166 158
239 259 293 297 251 258 330 317 298 317 340 311 275 307 338 334 339 343 334 327 327 321 320 328 327 327 331 323 319 4 40 23 6 6 5 355 4 9 354 343 349 351 346 341 338 340 348 348 343 346 350 351 356 358 350 347 352 350 342 340 331 307 297 299 308 318 327 344 4 9 357 330 275 227 218 213 201 197 200 198 191 182 168 153 141
231 257 292 330 338 275 293 306 287 272 288 291 278 275 288 303 322 338 328 315 310 300 293 306 312 320 335 336 331 89 78 42 357 355 2 352 357 6 349 338 347 352 355 358 355 355 1 1 359 3 3 359 4 10 1 352 349 342 329 322 314 308 311 329 355 12 37 57 62 61 68 98 143 160 163 153 137 112 87 78 84 114 143 142 140
212 237 276 337 3 316 267 276 277 270 268 266 256 251 251 261 283 307 307 296 272 255 265 265 238 292 331 1 69 102 94 66 5 5 23 15 2 355 348 350 358 6 16 21 19 21 27 26 22 22 20 17 25 33 21 6 2 356 340 336 360 26 46 61 65 66 72 75 73 69 70 78 90 92 93 96 88 76 71 68 61 55 59 74 90
211 221 253 301 329 316 283 278 284 280 265 243 239 246 244 235 251 276 291 289 256 228 237 214 198 290 320 358 79 96 83 60 72 71 39 23 19 19 20 24 37 55 60 52 45 46 47 44 38 35 36 38 45 50 46 32 25 27 35 49 57 57 58 62 65 65 61 48 37 30 26 34 54 66 68 67 64 62 65 69 63 55 54 59 69
220 220 240 266 287 296 292 288 289 277 255 230 224 234 236 235 252 276 293 295 262 208 210 160 143 293 318 338 68 96 79 63 73 56 47 57 61 59 59 63 71 78 77 71 63 58 55 52 44 38 39 41 42 45 50 50 45 44 49 58 64 68 68 67 64 57 46 37 31 29 32 44 54 56 54 55 55 52 53 57 56 55 60 67 72
234 228 233 252 277 290 292 292 285 272 266 253 236 231 235 240 248 266 290 298 281 181 145 115 127 121 341 348 44 83 73 65 67 69 76 81 77 71 69 69 69 70 69 65 59 52 49 51 46 39 36 32 27 26 33 41 45 47 45 44 50 58 54 46 41 48 55 56 49 47 50 51 46 44 45 47 47 44 42 42 44 47 53 56 57
249 242 239 253 279 288 293 296 281 280 295 289 251 237 248 251 247 258 284 285 262 202 136 115 103 103 84 64 68 69 62 64 77 86 90 86 77 68 62 55 49 46 45 46 44 38 37 42 45 42 40 35 29 28 31 32 35 36 32 21 13 7 359 352 350 14 53 58 52 49 51 45 38 43 48 42 34 35 40 44 47 46 47 51 47
256 250 244 264 287 292 297 302 297 294 303 304 272 252 258 251 245 265 280 251 224 194 150 126 105 90 84 79 76 71 66 73 88 93 89 80 73 67 54 43 38 36 33 34 37 34 34 39 45 48 52 54 52 49 41 32 31 36 30 15 5 3 10 23 30 34 49 57 53 47 44 41 37 42 47 41 31 30 36 45 48 43 42 48 47
265 261 247 262 287 297 296 298 306 309 302 288 270 253 244 238 239 258 264 238 199 174 158 143 118 98 90 88 87 82 77 78 85 86 79 73 72 67 48 39 43 39 24 21 28 33 34 39 45 46 45 45 46 46 41 32 27 24 7 348 345 351 6 42 51 44 48 62 65 56 49 46 41 37 37 38 39 42 44 47 47 45 42 42 44
273 276 261 250 273 293 295 290 296 304 301 282 261 239 226 226 233 231 217 202 185 176 171 161 142 129 118 109 101 95 94 94 90 85 77 64 56 42 25 24 36 38 10 356 3 18 25 29 33 29 13 359 353 357 3 4 358 352 348 348 355 14 34 43 50 54 54 50 44 43 45 49 49 45 43 45 47 49 48 47 45 45 44 40 38
267 271 264 251 257 275 287 286 282 279 268 259 262 249 227 220 227 218 204 196 193 191 188 175 165 161 151 136 121 110 111 111 103 98 92 72 36 11 9 12 13 8 347 335 331 329 325 325 325 319 315 313 312 310 316 326 332 336 346 1 20 43 47 36 56 78 79 68 48 40 46 50 46 43 45 46 44 42 44 44 38 36 39 39 36
267 263 259 252 248 256 272 280 276 264 243 228 242 242 230 222 224 219 208 198 195 194 191 180 172 171 166 157 145 131 123 117 104 96 95 85 40 328 349 1 360 351 344 340 336 330 328 325 321 318 312 306 302 305 312 323 332 333 333 335 338 356 32 32 54 91 98 92 70 50 51 56 52 44 44 41 31 21 24 32 29 24 28 33 31
267 258 252 246 239 241 256 267 267 261 249 239 242 243 234 226 223 217 208 194 190 194 194 180 170 166 166 163 155 141 134 125 107 101 102 91 303 283 310 339 348 344 340 338 334 336 342 339 332 326 313 304 313 329 334 338 345 344 339 341 353 25 59 64 73 100 108 98 80 55 45 53 63 76 80 62 41 23 14 15 16 14 16 24 28